Orange, MA

1:29 AM EDT on August 25, 2016 (GMT -0400)
Orange Municipal

Weather History for KORE - October, 2014

Change the Weather History Date:

Friday, October 3, 2014

  Actual Average Record
Temperature  
Mean Temperature 54 °F -  
Max Temperature 66 °F 62 °F 77 °F (2000)
Min Temperature 41 °F 37 °F 30 °F (2003)
Degree Days  
Heating Degree Days 12    
Growing Degree Days 4 (Base 50)    
Moisture  
Dew Point 46 °F    
Average Humidity 87    
Maximum Humidity 100    
Minimum Humidity 49    
Precipitation  
Precipitation 0.00 in - - ()
Sea Level Pressure  
Sea Level Pressure 30.08 in    
Wind  
Wind Speed 3 mph (East)    
Max Wind Speed 9 mph    
Max Gust Speed -    
Visibility 6 miles    
Events Fog    
Averages and records for this station are not official NWS values.
T = Trace of Precipitation, MM = Missing Value Source: NWS Daily Summary

Daily Weather History Graph

Daily Weather History Graph

Search for Another Location

Airport or City:

Trip Planner

Search our weather history database for the weather conditions in past years. The results will help you decide how hot, cold, wet, or windy it might be!

Date:

Astronomy

Oct. 03, 2014 Rise Set
Actual Time 6:48 AM EDT 6:27 PM EDT
Civil Twilight 6:20 AM EDT 6:55 PM EDT
Nautical Twilight 5:47 AM EDT 7:27 PM EDT
Astronomical Twilight 5:14 AM EDT 8:00 PM EDT
Moon 3:24 PM EDT (10/3) 12:59 AM EDT (10/3)
Length of Visible Light 12h 34m
Length of Day
11h 38m
Waxing Gibbous, 71% of the Moon is Illuminated
Oct 3
Waxing Gibbous
Oct 8
Full
Oct 15
Last Quarter
Oct 23
New
Oct 30
First Quarter

Hourly Weather History & Observations

Time (EDT) Temp. Windchill Dew Point Humidity Pressure Visibility Wind Dir Wind Speed Gust Speed Precip Events Conditions
12:13 AM 48.0 °F - 46.9 °F 96% 30.17 in 1.2 mi North 4.6 mph - N/A   Mostly Cloudy
12:23 AM 46.9 °F - 46.9 °F 100% 30.16 in 1.2 mi NNW 4.6 mph - N/A   Scattered Clouds
12:27 AM 46.9 °F - 46.9 °F 100% 30.17 in 2.0 mi NW 4.6 mph - N/A   Scattered Clouds
12:35 AM 46.9 °F - 46.9 °F 100% 30.17 in 8.0 mi NNW 3.5 mph - N/A   Partly Cloudy
12:52 AM 46.0 °F 44.8 °F 46.0 °F 100% 30.17 in 10.0 mi NE 3.5 mph - N/A   Clear
1:45 AM 46.0 °F - 45.0 °F 96% 30.15 in 3.0 mi Calm Calm - N/A   Scattered Clouds
1:47 AM 46.4 °F - 44.6 °F 93% 30.15 in 1.8 mi Calm Calm - N/A   Scattered Clouds
1:50 AM 46.4 °F - 44.6 °F 93% 30.15 in 1.0 mi Calm Calm - N/A   Mist
1:52 AM 45.0 °F - 44.1 °F 97% 30.15 in 0.8 mi Calm Calm - N/A   Mist
2:52 AM 43.0 °F - 43.0 °F 100% 30.13 in 0.2 mi Calm Calm - N/A Fog Fog
3:38 AM 43.0 °F - 43.0 °F 100% 30.13 in 1.2 mi Calm Calm - N/A   Mostly Cloudy
3:42 AM 43.0 °F - 43.0 °F 100% 30.13 in 1.5 mi Calm Calm - N/A   Scattered Clouds
3:52 AM 43.0 °F - 42.1 °F 97% 30.14 in 3.0 mi Calm Calm - N/A   Scattered Clouds
3:57 AM 43.0 °F 41.3 °F 42.1 °F 97% 30.13 in 1.5 mi NE 3.5 mph - N/A   Scattered Clouds
3:59 AM 43.0 °F 41.3 °F 42.1 °F 97% 30.13 in 0.8 mi NE 3.5 mph - N/A   Mist
4:47 AM 42.8 °F - 42.8 °F 100% 30.12 in 1.0 mi Calm Calm - N/A   Overcast
4:52 AM 42.1 °F - 41.0 °F 96% 30.14 in 0.8 mi Calm Calm - N/A   Overcast
5:52 AM 42.1 °F - 42.1 °F 100% 30.14 in 0.2 mi Calm Calm - N/A Fog Fog
6:52 AM 41.0 °F - 41.0 °F 100% 30.14 in 0.2 mi Calm Calm - N/A Fog Fog
7:52 AM 43.0 °F - 42.1 °F 97% 30.13 in 0.5 mi Calm Calm - N/A Fog Fog
7:57 AM 43.0 °F - 43.0 °F 100% 30.12 in 1.2 mi Calm Calm - N/A   Mostly Cloudy
8:00 AM 44.1 °F - 43.0 °F 96% 30.12 in 2.0 mi Calm Calm - N/A   Mostly Cloudy
8:06 AM 44.1 °F - 44.1 °F 100% 30.12 in 10.0 mi Calm Calm - N/A   Scattered Clouds
8:52 AM 48.0 °F - 46.0 °F 93% 30.12 in 10.0 mi Calm Calm - N/A   Clear
9:52 AM 55.0 °F - 48.9 °F 80% 30.11 in 10.0 mi Calm Calm - N/A   Clear
10:52 AM 60.1 °F - 48.9 °F 67% 30.09 in 10.0 mi Variable 4.6 mph - N/A   Clear
11:52 AM 63.0 °F - 48.0 °F 58% 30.06 in 10.0 mi East 5.8 mph - N/A   Clear
12:52 PM 66.0 °F - 46.9 °F 50% 30.03 in 10.0 mi Variable 3.5 mph - N/A   Clear
1:52 PM 66.9 °F - 46.9 °F 49% 30.01 in 10.0 mi East 3.5 mph - N/A   Clear
2:52 PM 66.0 °F - 46.9 °F 50% 29.99 in 10.0 mi Variable 6.9 mph - N/A   Clear
3:52 PM 66.9 °F - 46.9 °F 49% 29.98 in 10.0 mi ESE 9.2 mph - N/A   Clear
4:52 PM 66.0 °F - 48.9 °F 54% 29.97 in 10.0 mi East 8.1 mph - N/A   Clear
5:52 PM 63.0 °F - 50.0 °F 63% 29.97 in 10.0 mi SE 5.8 mph - N/A   Clear
6:52 PM 59.0 °F - 51.1 °F 75% 29.96 in 10.0 mi SE 5.8 mph - N/A   Clear
7:52 PM 55.9 °F - 51.1 °F 84% 29.96 in 10.0 mi SSE 3.5 mph - N/A   Clear
8:52 PM 54.0 °F - 50.0 °F 86% 29.96 in 10.0 mi ESE 5.8 mph - N/A   Mostly Cloudy
9:27 PM 53.1 °F - 48.9 °F 86% 29.95 in 10.0 mi SE 3.5 mph - N/A   Scattered Clouds
9:52 PM 52.0 °F - 48.9 °F 89% 29.96 in 10.0 mi SE 6.9 mph - N/A   Scattered Clouds
9:59 PM 52.0 °F - 48.9 °F 89% 29.95 in 10.0 mi SE 5.8 mph - N/A   Mostly Cloudy
10:30 PM 53.1 °F - 48.9 °F 86% 29.93 in 10.0 mi Calm Calm - N/A   Overcast
10:52 PM 53.1 °F - 50.0 °F 89% 29.93 in 10.0 mi Calm Calm - N/A   Overcast
11:52 PM 52.0 °F - 51.1 °F 97% 29.91 in 4.0 mi Calm Calm - N/A   Overcast